This is the latest recevied weather packets stored in our database for station/object KB3AWQ. If no packets are shown the sender has not sent any weather packets the latest 10 day(s).
| Time | Temp. | Humidity | Pressure | Rain* | Wind** | Luminosity | Snow |
|---|---|---|---|---|---|---|---|
| 1788015267 | 20° C | 76% | 1025.7 hPa | 0 mm | - | 724 W/m² | - |
| 1788014966 | 20° C | 76% | 1025.8 hPa | 0 mm | - | 712 W/m² | - |
| 1788014666 | 20° C | 76% | 1025.8 hPa | 0 mm | - | 700 W/m² | - |
| 1788014366 | 20° C | 79% | 1025.8 hPa | 0 mm | - | 687 W/m² | - |
| 1788014067 | 19.44° C | 80% | 1025.8 hPa | 0 mm | - | 669 W/m² | - |
| 1788013767 | 18.89° C | 82% | 1025.7 hPa | 0 mm | - | 658 W/m² | - |
| 1788013466 | 18.33° C | 81% | 1025.7 hPa | 0 mm | - | 642 W/m² | - |
| 1788013166 | 18.33° C | 82% | 1025.6 hPa | 0 mm | - | 625 W/m² | - |
| 1788012867 | 18.33° C | 83% | 1025.6 hPa | 0 mm | - | 609 W/m² | - |
| 1788012566 | 18.33° C | 81% | 1025.6 hPa | 0 mm | - | 430 W/m² | - |
| 1788012266 | 17.78° C | 84% | 1025.5 hPa | 0 mm | - | 567 W/m² | - |
| 1788011966 | 17.78° C | 85% | 1025.5 hPa | 0 mm | - | 547 W/m² | - |
| 1788011666 | 17.22° C | 84% | 1025.5 hPa | 0 mm | - | 538 W/m² | - |
| 1788011367 | 17.22° C | 84% | 1025.5 hPa | 0 mm | - | 517 W/m² | - |
| 1788011067 | 16.67° C | 87% | 1025.5 hPa | 0 mm | - | 490 W/m² | - |
| 1788010770 | 16.67° C | 86% | 1025.5 hPa | 0 mm | - | 476 W/m² | - |
| 1788010466 | 16.67° C | 86% | 1025.5 hPa | 0 mm | - | 460 W/m² | - |
| 1788010169 | 16.67° C | 87% | 1025.5 hPa | 0 mm | - | 447 W/m² | - |
| 1788009866 | 16.67° C | 87% | 1025.5 hPa | 0 mm | - | 429 W/m² | - |
| 1788009567 | 16.67° C | 88% | 1025.6 hPa | 0 mm | - | 394 W/m² | - |
| 1788009266 | 16.67° C | 87% | 1025.6 hPa | 0 mm | - | 371 W/m² | - |
| 1788008966 | 16.67° C | 87% | 1025.6 hPa | 0 mm | - | 371 W/m² | - |
| 1788008667 | 16.11° C | 87% | 1025.7 hPa | 0 mm | - | 364 W/m² | - |
| 1788008367 | 16.11° C | 90% | 1025.8 hPa | 0 mm | - | 359 W/m² | - |
| 1788008066 | 16.11° C | 88% | 1025.8 hPa | 0 mm | - | 348 W/m² | - |
* Rain latest hour (hover to see other rain measurements)
** Current wind speed in m/s (hover to see current wind gust speed)